IQ1GE Weather Reports


Display with metric or nautical units.
time (UTC)temp
F
wind
direction
speed
MPH
gust
MPH
rain 1hr
in
rain 24hr
in
rain mn
in
humidity
%
barometer
mb
20260509220930 66 359 0.0 0.0 0.00 0.00 0.00 71 1015.9
20260509220430 66 359 0.0 0.0 0.00 0.00 0.00 70 1015.9
20260509215930 66 359 0.0 0.0 0.00 0.00 0.00 71 1015.9
20260509215430 66 359 0.0 0.0 0.00 0.00 0.00 71 1016.0
20260509214933 67 359 0.0 0.0 0.00 0.00 0.00 71 1016.2
20260509214436 67 359 0.0 0.0 0.00 0.00 0.00 71 1016.3
20260509213933 67 359 0.0 0.0 0.00 0.00 0.00 72 1016.5
20260509213430 67 359 0.0 0.0 0.00 0.00 0.00 72 1016.6
20260509212933 67 359 0.0 0.0 0.00 0.00 0.00 73 1016.6
20260509212436 67 359 0.0 0.0 0.00 0.00 0.00 73 1016.7
20260509211933 67 359 0.0 0.0 0.00 0.00 0.00 73 1016.8
20260509211430 67 359 0.0 0.0 0.00 0.00 0.00 70 1016.9
20260509210933 67 359 0.0 0.0 0.00 0.00 0.00 69 1017.0
20260509210430 67 64 0.0 0.0 0.00 0.00 0.00 67 1016.9
20260509205930 67 91 0.0 0.0 0.00 0.00 0.00 66 1016.9
20260509205430 67 54 0.0 0.0 0.00 0.00 0.00 66 1016.8
20260509204933 67 20 0.0 0.0 0.00 0.00 0.00 66 1016.7
20260509204430 68 15 0.0 0.0 0.00 0.00 0.00 66 1016.7
20260509203930 68 42 0.0 0.0 0.00 0.00 0.00 68 1016.7
20260509203431 68 359 0.0 0.0 0.00 0.00 0.00 69 1016.6
20260509202934 68 359 0.0 0.0 0.00 0.00 0.00 69 1016.5
20260509202437 68 17 0.0 0.0 0.00 0.00 0.00 69 1016.4
20260509201931 68 16 0.0 0.0 0.00 0.00 0.00 69 1016.4
20260509201431 68 16 0.0 0.0 0.00 0.00 0.00 69 1016.3
20260509200931 68 17 0.0 0.0 0.00 0.00 0.00 70 1016.3
20260509200434 68 22 0.0 0.0 0.00 0.00 0.00 70 1016.2
20260509195934 68 359 0.0 0.0 0.00 0.00 0.00 71 1016.2
20260509195437 68 359 0.0 0.0 0.00 0.00 0.00 73 1016.1
20260509194931 68 359 0.0 0.0 0.00 0.00 0.00 76 1016.1
20260509194431 68 359 0.0 0.0 0.00 0.00 0.00 76 1016.1
20260509193934 69 359 0.0 0.0 0.00 0.00 0.00 75 1016.2
20260509193434 69 359 0.0 0.0 0.00 0.00 0.00 75 1016.2
20260509192931 69 359 0.0 0.0 0.00 0.00 0.00 75 1016.1
20260509192434 69 359 0.0 0.0 0.00 0.00 0.00 75 1016.0
20260509191934 69 359 0.0 0.0 0.00 0.00 0.00 74 1016.0
20260509191437 69 359 0.0 0.0 0.00 0.00 0.00 74 1015.9
20260509190937 69 359 0.0 0.0 0.00 0.00 0.00 74 1015.8
20260509190437 69 359 0.0 0.0 0.00 0.00 0.00 73 1015.7
20260509185931 70 359 0.0 0.0 0.00 0.00 0.00 73 1015.7
20260509185437 70 359 0.0 0.0 0.00 0.00 0.00 72 1015.7
20260509184931 70 359 0.0 0.0 0.00 0.00 0.00 71 1015.7
20260509184431 70 359 0.0 0.0 0.00 0.00 0.00 68 1015.7
20260509183934 70 359 0.0 0.0 0.00 0.00 0.00 66 1015.6
20260509183431 71 359 0.0 0.0 0.00 0.00 0.00 69 1015.6
20260509182934 70 359 0.0 0.0 0.00 0.00 0.00 69 1015.6
20260509182437 71 359 0.0 0.0 0.00 0.00 0.00 69 1015.6
20260509181934 70 359 0.0 0.0 0.00 0.00 0.00 69 1015.6
20260509181431 71 359 0.0 0.0 0.00 0.00 0.00 68 1015.6
20260509180932 71 359 0.0 0.0 0.00 0.00 0.00 68 1015.6
20260509180431 71 359 0.0 0.0 0.00 0.00 0.00 67 1015.6
20260509175931 71 359 0.0 0.0 0.00 0.00 0.00 67 1015.6
20260509175431 71 359 0.0 0.0 0.00 0.00 0.00 66 1015.6
20260509174931 71 201 0.0 0.0 0.00 0.00 0.00 66 1015.5
20260509174434 71 359 0.0 0.0 0.00 0.00 0.00 66 1015.5
20260509173934 71 359 0.0 0.0 0.00 0.00 0.00 65 1015.5
20260509173434 71 182 0.0 0.0 0.00 0.00 0.00 64 1015.5
20260509172931 71 58 0.0 0.0 0.00 0.00 0.00 63 1015.4
20260509172431 71 59 0.0 0.0 0.00 0.00 0.00 61 1015.3
20260509171931 71 50 0.0 0.0 0.00 0.00 0.00 63 1015.3
20260509171437 71 38 0.0 0.0 0.00 0.00 0.00 63 1015.3
20260509170931 71 63 0.0 0.0 0.00 0.00 0.00 64 1015.4
20260509170431 71 359 0.0 0.0 0.00 0.00 0.00 65 1015.5
20260509165931 71 49 0.0 0.0 0.00 0.00 0.00 63 1015.6
20260509165434 71 359 0.0 0.0 0.00 0.00 0.00 63 1015.7
20260509164934 71 359 0.0 0.0 0.00 0.00 0.00 63 1015.7
20260509164434 71 359 0.0 0.0 0.00 0.00 0.00 65 1015.7
20260509163934 71 237 0.0 0.0 0.00 0.00 0.00 65 1015.8
20260509163431 71 236 0.0 0.0 0.00 0.00 0.00 66 1015.9
20260509162934 71 237 0.0 0.0 0.00 0.00 0.00 66 1016.0
20260509162437 70 237 0.0 0.0 0.00 0.00 0.00 67 1016.1
20260509161931 70 237 0.0 0.0 0.00 0.00 0.00 67 1016.3
20260509161434 70 237 0.0 0.0 0.00 0.00 0.00 67 1016.4
20260509160931 70 237 0.0 0.0 0.00 0.00 0.00 68 1016.5
20260509160431 70 239 0.0 0.0 0.00 0.00 0.00 71 1016.6
20260509155937 70 220 0.0 0.0 0.00 0.00 0.00 71 1016.7
20260509155434 70 212 0.0 0.0 0.00 0.00 0.00 71 1016.7
20260509154931 70 235 0.0 0.0 0.00 0.00 0.00 70 1016.8
20260509154431 71 227 0.0 0.0 0.00 0.00 0.00 67 1016.8
20260509153931 71 241 0.0 0.0 0.00 0.00 0.00 66 1016.8
20260509153437 71 218 0.0 0.0 0.00 0.00 0.00 67 1016.7
20260509152934 71 199 0.0 0.0 0.00 0.00 0.00 68 1016.9
20260509152437 71 245 0.0 0.0 0.00 0.00 0.00 66 1016.9
20260509151940 71 233 0.0 0.0 0.00 0.00 0.00 68 1016.9
20260509151431 71 220 0.0 0.0 0.00 0.00 0.00 67 1016.9
20260509150931 71 249 0.0 0.0 0.00 0.00 0.00 68 1017.0
20260509150431 71 235 0.0 0.0 0.00 0.00 0.00 69 1017.0
20260509145934 71 241 0.0 0.0 0.00 0.00 0.00 69 1017.0
20260509145431 70 243 0.0 0.0 0.00 0.00 0.00 71 1017.1
20260509144934 70 249 0.0 0.0 0.00 0.00 0.00 71 1017.2
20260509144434 70 241 0.0 0.0 0.00 0.00 0.00 71 1017.3
20260509143931 70 219 0.0 0.0 0.00 0.00 0.00 71 1017.3
20260509143431 70 202 0.0 0.0 0.00 0.00 0.00 72 1017.3
20260509142935 70 237 0.0 0.0 0.00 0.00 0.00 71 1017.3
20260509142434 70 228 0.0 0.0 0.00 0.00 0.00 72 1017.3
20260509141934 70 199 0.0 0.0 0.00 0.00 0.00 72 1017.4
20260509141434 70 189 0.0 0.0 0.00 0.00 0.00 71 1017.5
20260509140934 70 239 0.0 0.0 0.00 0.00 0.00 71 1017.5
20260509140431 70 210 0.0 0.0 0.00 0.00 0.00 70 1017.6
20260509135931 70 215 0.0 0.0 0.00 0.00 0.00 70 1017.7
20260509135437 71 209 0.0 0.0 0.00 0.00 0.00 70 1017.8
20260509134931 71 246 0.0 0.0 0.00 0.00 0.00 69 1017.7
20260509134437 71 147 0.0 0.0 0.00 0.00 0.00 70 1017.7
20260509133934 71 185 0.0 0.0 0.00 0.00 0.00 70 1017.7
20260509133434 71 153 0.0 0.0 0.00 0.00 0.00 70 1017.7
20260509132931 71 262 0.0 0.0 0.00 0.00 0.00 69 1017.8
20260509132434 71 249 0.0 0.0 0.00 0.00 0.00 68 1017.7
20260509131931 71 204 0.0 0.0 0.00 0.00 0.00 69 1017.8
20260509131431 70 215 0.0 0.0 0.00 0.00 0.00 70 1017.9
20260509130934 70 220 0.0 0.0 0.00 0.00 0.00 72 1018.0
20260509130431 70 197 0.0 0.0 0.00 0.00 0.00 73 1018.0
20260509125937 70 192 0.0 0.0 0.00 0.00 0.00 73 1018.1
20260509125431 70 237 0.0 0.0 0.00 0.00 0.00 72 1018.2
20260509124931 71 241 0.0 0.0 0.00 0.00 0.00 72 1018.1
20260509124431 70 175 0.0 0.0 0.00 0.00 0.00 71 1018.1
20260509123931 70 201 0.0 0.0 0.00 0.00 0.00 71 1018.3
20260509123431 70 251 0.0 0.0 0.00 0.00 0.00 71 1018.3
20260509122934 70 252 0.0 0.0 0.00 0.00 0.00 72 1018.2
20260509122431 70 179 0.0 0.0 0.00 0.00 0.00 71 1018.4
20260509121940 70 228 0.0 0.0 0.00 0.00 0.00 71 1018.4
20260509121434 70 208 0.0 0.0 0.00 0.00 0.00 70 1018.4
20260509120931 70 177 0.0 0.0 0.00 0.00 0.00 71 1018.5
20260509120434 70 359 0.0 0.0 0.00 0.00 0.00 71 1018.4
20260509115934 70 359 0.0 0.0 0.00 0.00 0.00 72 1018.5
20260509115431 70 192 0.0 0.0 0.00 0.00 0.00 72 1018.4
20260509114940 70 359 0.0 0.0 0.00 0.00 0.00 71 1018.5
20260509114434 70 204 0.0 0.0 0.00 0.00 0.00 72 1018.5
20260509113934 70 216 0.0 0.0 0.00 0.00 0.00 72 1018.5
20260509113431 70 219 0.0 0.0 0.00 0.00 0.00 71 1018.6
20260509112934 70 147 0.0 0.0 0.00 0.00 0.00 70 1018.7
20260509112434 70 191 0.0 0.0 0.00 0.00 0.00 70 1018.7
20260509111934 70 170 0.0 0.0 0.00 0.00 0.00 69 1018.8
20260509111431 70 193 0.0 0.0 0.00 0.00 0.00 69 1018.7
20260509110931 70 214 0.0 0.0 0.00 0.00 0.00 68 1018.7
20260509110431 70 195 0.0 0.0 0.00 0.00 0.00 68 1018.7
20260509105931 70 182 0.0 0.0 0.00 0.00 0.00 68 1018.6
20260509105431 70 184 0.0 0.0 0.00 0.00 0.00 67 1018.7
20260509104934 70 219 0.0 0.0 0.00 0.00 0.00 66 1018.6
20260509104434 70 193 0.0 0.0 0.00 0.00 0.00 66 1018.6
20260509103931 70 176 0.0 0.0 0.00 0.00 0.00 67 1018.6
20260509103431 70 201 0.0 0.0 0.00 0.00 0.00 69 1018.6
20260509102931 70 190 0.0 0.0 0.00 0.00 0.00 70 1018.6
20260509102431 70 165 0.0 0.0 0.00 0.00 0.00 68 1018.6
20260509101934 70 221 0.0 0.0 0.00 0.00 0.00 69 1018.6
20260509101434 70 162 0.0 0.0 0.00 0.00 0.00 69 1018.5
20260509100931 70 187 0.0 0.0 0.00 0.00 0.00 69 1018.6
20260509100431 70 204 0.0 0.0 0.00 0.00 0.00 69 1018.6
20260509095937 70 220 0.0 0.0 0.00 0.00 0.00 69 1018.6
20260509095434 70 192 0.0 0.0 0.00 0.00 0.00 69 1018.6
20260509094931 70 219 0.0 0.0 0.00 0.00 0.00 68 1018.6
20260509094431 70 232 0.0 0.0 0.00 0.00 0.00 67 1018.6
20260509093934 70 192 0.0 0.0 0.00 0.00 0.00 68 1018.6
20260509093434 70 206 0.0 0.0 0.00 0.00 0.00 67 1018.6
20260509092932 70 204 0.0 0.0 0.00 0.00 0.00 67 1018.7
20260509092432 70 253 0.0 0.0 0.00 0.00 0.00 67 1018.7
20260509091931 70 194 0.0 0.0 0.00 0.00 0.00 66 1018.7
20260509091435 70 181 0.0 0.0 0.00 0.00 0.00 65 1018.8
20260509090935 70 245 0.0 0.0 0.00 0.00 0.00 67 1018.8
20260509090432 70 183 0.0 0.0 0.00 0.00 0.00 67 1018.8
20260509085932 70 158 0.0 0.0 0.00 0.00 0.00 67 1018.8
20260509085438 69 216 0.0 0.0 0.00 0.00 0.00 67 1018.8
20260509084938 69 213 0.0 0.0 0.00 0.00 0.00 67 1018.8
20260509084432 69 251 0.0 0.0 0.00 0.00 0.00 67 1018.8
20260509083938 69 185 0.0 0.0 0.00 0.00 0.00 66 1018.8
20260509083441 69 181 0.0 0.0 0.00 0.00 0.00 67 1018.8
20260509082932 69 158 0.0 0.0 0.00 0.00 0.00 65 1018.8
20260509082432 69 179 0.0 0.0 0.00 0.00 0.00 65 1018.8
20260509081935 69 210 0.0 0.0 0.00 0.00 0.00 65 1018.7
20260509081432 69 227 0.0 0.0 0.00 0.00 0.00 64 1018.7
20260509080935 69 212 0.0 0.0 0.00 0.00 0.00 64 1018.8
20260509080435 69 208 0.0 0.0 0.00 0.00 0.00 63 1018.8
20260509075932 70 204 0.0 0.0 0.00 0.00 0.00 64 1018.8
20260509075432 70 191 0.0 0.0 0.00 0.00 0.00 64 1018.8
20260509074935 70 219 0.0 0.0 0.00 0.00 0.00 64 1018.9
20260509074435 69 220 0.0 0.0 0.00 0.00 0.00 64 1019.0
20260509073932 69 220 0.0 0.0 0.00 0.00 0.00 63 1019.0
20260509073432 69 222 0.0 0.0 0.00 0.00 0.00 63 1019.0
20260509072932 69 220 0.0 0.0 0.00 0.00 0.00 63 1018.9
20260509072435 69 220 0.0 0.0 0.00 0.00 0.00 63 1018.8
20260509071938 68 185 0.0 0.0 0.00 0.00 0.00 63 1018.8
20260509071432 69 208 0.0 0.0 0.00 0.00 0.00 64 1018.8
20260509070932 68 210 0.0 0.0 0.00 0.00 0.00 65 1018.7
20260509070432 68 213 0.0 0.0 0.00 0.00 0.00 65 1018.7
20260509065935 68 45 0.0 0.0 0.00 0.00 0.00 67 1018.7
20260509065432 67 43 0.0 0.0 0.00 0.00 0.00 68 1018.6
20260509064935 67 359 0.0 0.0 0.00 0.00 0.00 68 1018.5
20260509064432 66 29 0.0 0.0 0.00 0.00 0.00 69 1018.5
20260509063932 66 359 0.0 0.0 0.00 0.00 0.00 69 1018.5
20260509063432 66 359 0.0 0.0 0.00 0.00 0.00 70 1018.5
20260509062935 66 359 0.0 0.0 0.00 0.00 0.00 70 1018.5
20260509062432 65 359 0.0 0.0 0.00 0.00 0.00 70 1018.6
20260509061932 65 28 0.0 0.0 0.00 0.00 0.00 70 1018.6
20260509061432 65 359 0.0 0.0 0.00 0.00 0.00 70 1018.6
20260509060932 65 359 0.0 0.0 0.00 0.00 0.00 71 1018.6
20260509060438 64 33 0.0 0.0 0.00 0.00 0.00 71 1018.6
20260509055932 64 359 0.0 0.0 0.00 0.00 0.00 72 1018.6
20260509055435 63 359 0.0 0.0 0.00 0.00 0.00 72 1018.7
20260509054938 63 359 0.0 0.0 0.00 0.00 0.00 73 1018.7
20260509054432 63 359 0.0 0.0 0.00 0.00 0.00 73 1018.6
20260509053932 63 359 0.0 0.0 0.00 0.00 0.00 73 1018.6
20260509053435 63 359 0.0 0.0 0.00 0.00 0.00 72 1018.5
20260509052932 63 359 0.0 0.0 0.00 0.00 0.00 72 1018.4
20260509052432 63 359 0.0 0.0 0.00 0.00 0.00 72 1018.4
20260509051932 63 359 0.0 0.0 0.00 0.00 0.00 72 1018.4
20260509051432 63 359 0.0 0.0 0.00 0.00 0.00 72 1018.4
20260509050932 63 359 0.0 0.0 0.00 0.00 0.00 72 1018.4
20260509050438 63 359 0.0 0.0 0.00 0.00 0.00 72 1018.4
20260509045935 63 359 0.0 0.0 0.00 0.00 0.00 71 1018.3
20260509045435 63 359 0.0 0.0 0.00 0.00 0.00 72 1018.3
20260509044938 63 359 0.0 0.0 0.00 0.00 0.00 72 1018.2
20260509044435 63 359 0.0 0.0 0.00 0.00 0.00 72 1018.2
20260509043932 62 359 0.0 0.0 0.00 0.00 0.00 72 1018.2
20260509043438 62 359 0.0 0.0 0.00 0.00 0.00 72 1018.2
20260509042932 62 359 0.0 0.0 0.00 0.00 0.00 73 1018.1
20260509042432 62 359 0.0 0.0 0.00 0.00 0.00 73 1018.1
20260509041938 62 359 0.0 0.0 0.00 0.00 0.00 73 1018.1
20260509041432 62 359 0.0 0.0 0.00 0.00 0.00 73 1018.1
20260509040932 62 359 0.0 0.0 0.00 0.00 0.00 73 1018.0
20260509040435 62 359 0.0 0.0 0.00 0.00 0.00 73 1018.0
20260509035932 62 359 0.0 0.0 0.00 0.00 0.00 73 1017.9
20260509035435 63 359 0.0 0.0 0.00 0.00 0.00 73 1017.9
20260509034932 62 359 0.0 0.0 0.00 0.00 0.00 73 1018.0
20260509034435 63 359 0.0 0.0 0.00 0.00 0.00 73 1018.0
20260509033932 63 359 0.0 0.0 0.00 0.00 0.00 72 1017.9
20260509033435 63 359 0.0 0.0 0.00 0.00 0.00 72 1017.8
20260509032932 63 359 0.0 0.0 0.00 0.00 0.00 72 1017.8
20260509032438 63 359 0.0 0.0 0.00 0.00 0.00 72 1017.8
20260509031935 63 359 0.0 0.0 0.00 0.00 0.00 71 1017.7
20260509031432 63 359 0.0 0.0 0.00 0.00 0.00 71 1017.7
20260509030938 63 359 0.0 0.0 0.00 0.00 0.00 71 1017.7
20260509030435 63 359 0.0 0.0 0.00 0.00 0.00 71 1017.8
20260509025941 63 359 0.0 0.0 0.00 0.00 0.00 71 1017.8
20260509025432 63 359 0.0 0.0 0.00 0.00 0.00 72 1017.8
20260509024932 63 359 0.0 0.0 0.00 0.00 0.00 72 1017.8
20260509024432 63 359 0.0 0.0 0.00 0.00 0.00 72 1017.8
20260509023932 63 359 0.0 0.0 0.00 0.00 0.00 73 1017.8
20260509023435 63 359 0.0 0.0 0.00 0.00 0.00 72 1017.7
20260509022932 63 359 0.0 0.0 0.00 0.00 0.00 72 1017.8
20260509022432 63 359 0.0 0.0 0.00 0.00 0.00 73 1017.8
20260509021932 63 359 0.0 0.0 0.00 0.00 0.00 74 1017.7
20260509021432 63 359 0.0 0.0 0.00 0.00 0.00 75 1017.8
20260509020932 62 359 0.0 0.0 0.00 0.00 0.00 75 1017.7
20260509020438 62 359 0.0 0.0 0.00 0.00 0.00 75 1017.7
20260509015932 62 359 0.0 0.0 0.00 0.00 0.00 75 1017.7
20260509015429 62 359 0.0 0.0 0.00 0.00 0.00 74 1017.7
20260509014929 63 359 0.0 0.0 0.00 0.00 0.00 73 1017.6
20260509014429 63 359 0.0 0.0 0.00 0.00 0.00 73 1017.7
20260509013932 63 359 0.0 0.0 0.00 0.00 0.00 74 1017.7
20260509013435 63 359 0.0 0.0 0.00 0.00 0.00 74 1017.8
20260509012930 63 359 0.0 0.0 0.00 0.00 0.00 74 1017.8
20260509012433 63 359 0.0 0.0 0.00 0.00 0.00 75 1017.8
20260509011930 63 359 0.0 0.0 0.00 0.00 0.00 75 1017.8
20260509011429 63 359 0.0 0.0 0.00 0.00 0.00 75 1017.8
20260509010930 63 359 0.0 0.0 0.00 0.00 0.00 75 1017.8
20260509010430 63 359 0.0 0.0 0.00 0.00 0.00 75 1017.8
20260509005930 63 359 0.0 0.0 0.00 0.00 0.00 75 1017.8
20260509005433 63 359 0.0 0.0 0.00 0.00 0.00 75 1017.8
20260509004933 63 359 0.0 0.0 0.00 0.00 0.00 74 1017.8
20260509004430 63 359 0.0 0.0 0.00 0.00 0.00 74 1017.9
20260509003936 63 359 0.0 0.0 0.00 0.00 0.00 75 1018.0
20260509003433 63 359 0.0 0.0 0.00 0.00 0.00 74 1018.0
20260509002933 63 359 0.0 0.0 0.00 0.00 0.00 74 1018.0
20260509002436 63 359 0.0 0.0 0.00 0.00 0.00 74 1018.0
20260509001930 63 359 0.0 0.0 0.00 0.00 0.00 74 1018.0
20260509001430 64 359 0.0 0.0 0.00 0.00 0.00 74 1017.9
20260509000930 64 359 0.0 0.0 0.00 0.00 0.00 73 1017.9
20260509000436 64 359 0.0 0.0 0.00 0.00 0.00 73 1017.9
20260508235933 65 359 0.0 0.0 0.00 0.00 0.00 73 1017.9
20260508235436 65 359 0.0 0.0 0.00 0.00 0.00 73 1017.9
20260508234930 64 359 0.0 0.0 0.00 0.00 0.00 74 1017.9
20260508234430 64 359 0.0 0.0 0.00 0.00 0.00 74 1017.9
20260508233930 64 359 0.0 0.0 0.00 0.00 0.00 74 1017.8
20260508233430 64 359 0.0 0.0 0.00 0.00 0.00 73 1017.8
20260508232930 65 359 0.0 0.0 0.00 0.00 0.00 73 1017.8
20260508232430 65 359 0.0 0.0 0.00 0.00 0.00 73 1017.8
20260508231936 65 359 0.0 0.0 0.00 0.00 0.00 73 1017.8
20260508231430 65 359 0.0 0.0 0.00 0.00 0.00 73 1017.8
20260508230933 65 359 0.0 0.0 0.00 0.00 0.00 73 1017.8
20260508230436 65 359 0.0 0.0 0.00 0.00 0.00 73 1017.8
20260508225936 65 359 0.0 0.0 0.00 0.00 0.00 73 1017.8
20260508225430 65 359 0.0 0.0 0.00 0.00 0.00 73 1017.8
20260508224930 65 359 0.0 0.0 0.00 0.00 0.00 73 1017.8
20260508224433 65 359 0.0 0.0 0.00 0.00 0.00 73 1017.8
20260508223930 65 359 0.0 0.0 0.00 0.00 0.00 73 1017.8
20260508223430 65 359 0.0 0.0 0.00 0.00 0.00 73 1017.8
20260508222933 65 359 0.0 0.0 0.00 0.00 0.00 72 1017.7
20260508222430 65 359 0.0 0.0 0.00 0.00 0.00 72 1017.7
20260508221933 65 359 0.0 0.0 0.00 0.00 0.00 72 1017.7
20260508221433 65 359 0.0 0.0 0.00 0.00 0.00 72 1017.6